Погода в Довске

Беларусь     53°09′25″N   30°27′39″E
темп.,
°C
ветер,
м/с
пор.,
м/с
влажн.,
%
обл.,
%
осадки,
мм/ч
давл.,
гПа
погр.,
м
27 октября, ср
ср2700:00+5ююз51357100 0.0 1021295
03:00+4ююз51163100 0.0 1020259
06:00+3юз51166100 0.0 1019271
09:00+5юз51170100 0.1 1019330
12:00+8з5107185 0.0 1020568
15:00+10з686948 0.0 1020959
18:00+9з4970100 0.0 1020396
21:00+7юз41178100 0.0 1020260
28 октября, чт
чт2800:00+7юз51385100 0.0 1019372
03:00+8зюз61487100 0.8 1018628
06:00+9зюз7148783 1.0 1016553
09:00+10з61388100 1.1 1017675
12:00+10з61288100 0.0 1018577
15:00+12зсз6118338 0.1 1019669
18:00+10зсз4109012 0.0 1021237
21:00+8ссз389351 0.1 1023195
29 октября, пт
пт2900:00+6с22915 0.0 102629
03:00+5с22895 0.0 102711
06:00+4св118925 0.0 102810
09:00+5вюв118629 0.0 102910
12:00+9ююв23685 0.0 1029362
15:00+11ююв33625 0.0 1029531
18:00+7ююв34816 0.0 102946
21:00+6ююв35895 0.0 103080
30 октября, сб
сб3000:00+5ююв499321 0.0 1030154
03:00+4ююв399435 0.0 1030168
06:00+3ююв389470 0.0 1030156
09:00+4ююв4109422 0.0 1030214
12:00+9ю69715 0.0 1029436
15:00+12ю69635 0.0 1028675
18:00+8ююв411825 0.0 1028229
21:00+7ю514835 0.0 1028279
31 октября, вс
вс3100:00+6ю514855 0.0 1028276
03:00+5ю513905 0.0 1027243
06:00+5ю412925 0.0 1027236
09:00+6ю514895 0.0 1027316
12:00+10ю712645 0.0 1025576
15:00+12ю712565 0.0 1023756
18:00+9ююв614634 0.0 1023394
21:00+7ююв616660 0.0 1022413